TKJ8NA LTAC-LTFH

Flight info

Callsign TKJ8NA
Flight time 0h 42m
Altitude 27000
Route ILHAN W71 ERGUN UW71 HAVZA
Aircraft B738/M-SDE2E3FGHIRWXY/LB1

Departure

Time 2026-04-26 11:49
Airport Esenboğa International Airport (LTAC)

Arrival

Time 2026-04-26 12:32
Airport Samsun-Çarşamba Airport (LTFH)
Time Latitude Longitude Altitude Speed Heading
2026-04-26 11:41 40.14111 33.00113 3149 ft 0 kts 309°
2026-04-26 11:45 40.14108 33.00118 3149 ft 2 kts 309°
2026-04-26 11:45 40.14099 33.00133 3149 ft 2 kts 309°
2026-04-26 11:45 40.14089 33.00149 3149 ft 2 kts 309°
2026-04-26 11:45 40.14080 33.00164 3149 ft 2 kts 308°
2026-04-26 11:46 40.14071 33.00179 3149 ft 2 kts 307°
2026-04-26 11:46 40.14062 33.00195 3149 ft 2 kts 322°
2026-04-26 11:46 40.14049 33.00204 3149 ft 2 kts 354°
2026-04-26 11:46 40.14034 33.00203 3148 ft 2 kts 27°
2026-04-26 11:47 40.14031 33.00201 3148 ft 0 kts 36°
2026-04-26 11:47 40.14045 33.00215 3149 ft 8 kts 43°
2026-04-26 11:47 40.14113 33.00315 3151 ft 19 kts 42°
2026-04-26 11:47 40.14231 33.00428 3156 ft 21 kts 36°
2026-04-26 11:48 40.14308 33.00573 3157 ft 21 kts 100°
2026-04-26 11:48 40.14260 33.00666 3157 ft 11 kts 136°
2026-04-26 11:48 40.14180 33.00648 3154 ft 24 kts 215°
2026-04-26 11:48 40.13826 33.00313 3146 ft 102 kts 216°
2026-04-26 11:49 40.13055 32.99589 3140 ft 167 kts 216°
2026-04-26 11:49 40.12017 32.98601 3498 ft 202 kts 217°
2026-04-26 11:49 40.10778 32.97465 3822 ft 232 kts 217°
2026-04-26 11:49 40.09420 32.96172 4397 ft 247 kts 218°
2026-04-26 11:50 40.08012 32.94825 5068 ft 258 kts 217°
2026-04-26 11:50 40.06540 32.93423 5716 ft 266 kts 217°
2026-04-26 11:50 40.05032 32.91992 6595 ft 269 kts 217°
2026-04-26 11:50 40.03537 32.90574 7458 ft 270 kts 216°
2026-04-26 11:51 40.01997 32.89119 8248 ft 276 kts 217°
2026-04-26 11:51 40.00436 32.87644 9044 ft 280 kts 216°
2026-04-26 11:51 39.98847 32.86148 9869 ft 283 kts 216°
2026-04-26 11:51 39.97236 32.84631 10535 ft 293 kts 216°
2026-04-26 11:52 39.95510 32.83009 10730 ft 317 kts 216°
2026-04-26 11:52 39.94250 32.81959 10853 ft 333 kts 206°
2026-04-26 11:52 39.91133 32.81347 11579 ft 349 kts 174°
2026-04-26 11:52 39.88808 32.82296 12350 ft 355 kts 153°
2026-04-26 11:53 39.86897 32.84293 13072 ft 364 kts 132°
2026-04-26 11:53 39.85593 32.87141 13734 ft 372 kts 112°
2026-04-26 11:53 39.85076 32.90457 14338 ft 380 kts 92°
2026-04-26 11:54 39.86656 32.96980 15610 ft 389 kts 52°
2026-04-26 11:54 39.88482 32.99582 16279 ft 391 kts 44°
2026-04-26 11:54 39.90479 33.02014 16905 ft 395 kts 41°
2026-04-26 11:54 39.92526 33.04418 17541 ft 397 kts 41°
2026-04-26 11:55 39.94552 33.06817 18119 ft 401 kts 42°
2026-04-26 11:55 39.96609 33.09303 18665 ft 406 kts 43°
2026-04-26 11:55 39.98669 33.11838 19266 ft 408 kts 43°
2026-04-26 11:55 40.00726 33.14412 19833 ft 411 kts 44°
2026-04-26 11:56 40.02786 33.17017 20374 ft 414 kts 44°
2026-04-26 11:56 40.04855 33.19646 20913 ft 417 kts 44°
2026-04-26 11:56 40.06938 33.22299 21409 ft 420 kts 44°
2026-04-26 11:56 40.09036 33.24974 21905 ft 423 kts 44°
2026-04-26 11:57 40.11150 33.27671 22370 ft 426 kts 44°
2026-04-26 11:57 40.13248 33.30351 22847 ft 429 kts 44°
2026-04-26 11:57 40.15386 33.33084 23296 ft 432 kts 44°
2026-04-26 11:57 40.17540 33.35838 23731 ft 435 kts 44°
2026-04-26 11:58 40.19709 33.38613 24161 ft 438 kts 44°
2026-04-26 11:58 40.21888 33.41403 24621 ft 439 kts 44°
2026-04-26 11:58 40.24060 33.44189 25238 ft 435 kts 44°
2026-04-26 11:58 40.26213 33.46952 25872 ft 432 kts 44°
2026-04-26 11:59 40.28349 33.49696 26487 ft 429 kts 44°
2026-04-26 11:59 40.30473 33.52426 26976 ft 427 kts 44°
2026-04-26 11:59 40.32570 33.55125 26997 ft 429 kts 44°
2026-04-26 11:59 40.34692 33.57859 27016 ft 427 kts 44°
2026-04-26 12:00 40.36810 33.60590 27012 ft 427 kts 44°
2026-04-26 12:00 40.38927 33.63321 27013 ft 427 kts 44°
2026-04-26 12:00 40.41043 33.66055 27015 ft 427 kts 44°
2026-04-26 12:00 40.43154 33.68802 27014 ft 427 kts 47°
2026-04-26 12:01 40.44849 33.71978 27001 ft 426 kts 66°
2026-04-26 12:01 40.45858 33.75629 27017 ft 426 kts 72°
2026-04-26 12:01 40.46730 33.79297 27013 ft 426 kts 73°
2026-04-26 12:01 40.47607 33.83018 27003 ft 427 kts 73°
2026-04-26 12:02 40.48509 33.86741 26998 ft 428 kts 72°
2026-04-26 12:02 40.49120 33.89202 26999 ft 428 kts 72°
2026-04-26 12:02 40.50367 33.94167 26998 ft 428 kts 71°
2026-04-26 12:02 40.51398 33.97839 27001 ft 428 kts 69°
2026-04-26 12:03 40.52508 34.01465 27003 ft 428 kts 68°
2026-04-26 12:03 40.53645 34.05078 26998 ft 428 kts 68°
2026-04-26 12:03 40.54786 34.08694 26993 ft 428 kts 68°
2026-04-26 12:03 40.55905 34.12265 26990 ft 428 kts 68°
2026-04-26 12:04 40.57029 34.15889 26991 ft 428 kts 68°
2026-04-26 12:04 40.58146 34.19518 26990 ft 428 kts 68°
2026-04-26 12:04 40.59257 34.23146 26991 ft 428 kts 68°
2026-04-26 12:04 40.60365 34.26774 26991 ft 427 kts 69°
2026-04-26 12:05 40.61472 34.30406 26986 ft 427 kts 69°
2026-04-26 12:05 40.62575 34.34035 26985 ft 427 kts 69°
2026-04-26 12:05 40.63678 34.37669 26983 ft 427 kts 69°
2026-04-26 12:05 40.64781 34.41306 26982 ft 428 kts 69°
2026-04-26 12:06 40.65867 34.44894 26982 ft 428 kts 69°
2026-04-26 12:06 40.66968 34.48534 26981 ft 428 kts 69°
2026-04-26 12:06 40.68068 34.52173 26984 ft 428 kts 69°
2026-04-26 12:06 40.69166 34.55813 26982 ft 428 kts 69°
2026-04-26 12:07 40.70264 34.59460 26981 ft 428 kts 69°
2026-04-26 12:07 40.71360 34.63105 26972 ft 428 kts 69°
2026-04-26 12:07 40.72459 34.66757 26970 ft 429 kts 69°
2026-04-26 12:07 40.73557 34.70411 26965 ft 428 kts 69°
2026-04-26 12:08 40.74651 34.74062 26976 ft 428 kts 69°
2026-04-26 12:08 40.75739 34.77717 26971 ft 428 kts 69°
2026-04-26 12:08 40.76806 34.81326 26966 ft 428 kts 69°
2026-04-26 12:08 40.77886 34.84991 26963 ft 428 kts 69°
2026-04-26 12:09 40.78963 34.88650 26972 ft 428 kts 69°
2026-04-26 12:09 40.80041 34.92316 26969 ft 428 kts 69°
2026-04-26 12:09 40.81119 34.95982 26960 ft 429 kts 69°
2026-04-26 12:09 40.82197 34.99656 26962 ft 429 kts 69°
2026-04-26 12:10 40.83272 35.03322 26947 ft 425 kts 69°
2026-04-26 12:10 40.84321 35.06902 26924 ft 411 kts 69°
2026-04-26 12:10 40.85345 35.10400 26615 ft 406 kts 69°
2026-04-26 12:10 40.86340 35.13810 26258 ft 402 kts 69°
2026-04-26 12:11 40.87341 35.17241 25862 ft 399 kts 70°
2026-04-26 12:11 40.88333 35.20650 25459 ft 396 kts 70°
2026-04-26 12:11 40.89318 35.24037 25061 ft 393 kts 70°
2026-04-26 12:11 40.90296 35.27401 24660 ft 391 kts 70°
2026-04-26 12:12 40.91267 35.30749 24254 ft 389 kts 70°
2026-04-26 12:12 40.92233 35.34084 23850 ft 388 kts 70°
2026-04-26 12:12 40.93196 35.37407 23446 ft 386 kts 70°
2026-04-26 12:12 40.93829 35.39597 23189 ft 385 kts 70°
2026-04-26 12:13 40.95090 35.43963 22652 ft 383 kts 70°
2026-04-26 12:13 40.96039 35.47252 22171 ft 384 kts 70°
2026-04-26 12:13 40.96991 35.50546 21751 ft 382 kts 70°
2026-04-26 12:13 40.97936 35.53821 21358 ft 380 kts 70°
2026-04-26 12:14 40.98874 35.57076 20956 ft 378 kts 70°
2026-04-26 12:14 40.99807 35.60317 20567 ft 375 kts 70°
2026-04-26 12:14 41.00733 35.63534 20177 ft 373 kts 70°
2026-04-26 12:14 41.01642 35.66697 19801 ft 371 kts 70°
2026-04-26 12:15 41.02555 35.69875 19409 ft 369 kts 70°
2026-04-26 12:15 41.03480 35.73043 19008 ft 368 kts 69°
2026-04-26 12:15 41.04407 35.76192 18628 ft 366 kts 69°
2026-04-26 12:15 41.05330 35.79325 18257 ft 364 kts 69°
2026-04-26 12:16 41.06244 35.82440 17872 ft 363 kts 69°
2026-04-26 12:16 41.07157 35.85555 17477 ft 362 kts 69°
2026-04-26 12:16 41.08064 35.88657 17095 ft 360 kts 69°
2026-04-26 12:16 41.08964 35.91738 16746 ft 357 kts 69°
2026-04-26 12:17 41.09833 35.94769 16372 ft 356 kts 70°
2026-04-26 12:17 41.10678 35.97847 15972 ft 354 kts 71°
2026-04-26 12:17 41.11506 36.00914 15604 ft 353 kts 71°
2026-04-26 12:17 41.12329 36.03974 15241 ft 351 kts 71°
2026-04-26 12:18 41.13148 36.07016 14854 ft 350 kts 71°
2026-04-26 12:18 41.13965 36.10052 14480 ft 348 kts 71°
2026-04-26 12:18 41.14781 36.13075 14119 ft 348 kts 71°
2026-04-26 12:18 41.15592 36.16086 13762 ft 346 kts 71°
2026-04-26 12:19 41.16391 36.19048 13389 ft 345 kts 70°
2026-04-26 12:19 41.17196 36.22036 13008 ft 343 kts 70°
2026-04-26 12:19 41.17998 36.25008 12638 ft 342 kts 70°
2026-04-26 12:19 41.18794 36.27968 12299 ft 338 kts 71°
2026-04-26 12:20 41.19584 36.30908 11919 ft 338 kts 71°
2026-04-26 12:20 41.20373 36.33848 11532 ft 338 kts 71°
2026-04-26 12:20 41.21159 36.36782 11181 ft 336 kts 71°
2026-04-26 12:20 41.21939 36.39700 10824 ft 333 kts 71°
2026-04-26 12:21 41.22709 36.42588 10477 ft 332 kts 71°
2026-04-26 12:21 41.23464 36.45412 10305 ft 324 kts 71°
2026-04-26 12:21 41.24207 36.48190 10184 ft 315 kts 71°
2026-04-26 12:21 41.24931 36.50903 10063 ft 307 kts 71°
2026-04-26 12:22 41.25635 36.53551 9838 ft 302 kts 71°
2026-04-26 12:22 41.26331 36.56179 9540 ft 301 kts 71°
2026-04-26 12:22 41.27028 36.58797 9250 ft 300 kts 71°
2026-04-26 12:22 41.27720 36.61404 8982 ft 298 kts 71°
2026-04-26 12:23 41.28407 36.63991 8692 ft 296 kts 71°
2026-04-26 12:23 41.29090 36.66572 8388 ft 295 kts 71°
2026-04-26 12:23 41.29623 36.69193 8081 ft 294 kts 88°
2026-04-26 12:23 41.29305 36.71788 7773 ft 288 kts 114°
2026-04-26 12:24 41.28305 36.74066 7469 ft 284 kts 128°
2026-04-26 12:24 41.27117 36.76169 7127 ft 285 kts 129°
2026-04-26 12:24 41.25922 36.78270 6793 ft 285 kts 129°
2026-04-26 12:25 41.23561 36.82498 6108 ft 285 kts 128°
2026-04-26 12:25 41.22315 36.84535 5753 ft 283 kts 141°
2026-04-26 12:25 41.20608 36.85705 5423 ft 276 kts 170°
2026-04-26 12:25 41.18731 36.85704 5178 ft 265 kts 195°
2026-04-26 12:26 41.17133 36.84842 5116 ft 242 kts 215°
2026-04-26 12:26 41.15876 36.83500 4976 ft 223 kts 221°
2026-04-26 12:26 41.14742 36.82214 4843 ft 207 kts 221°
2026-04-26 12:26 41.13668 36.80993 4571 ft 200 kts 221°
2026-04-26 12:27 41.12637 36.79762 4143 ft 199 kts 231°
2026-04-26 12:27 41.12167 36.78075 3683 ft 199 kts 272°
2026-04-26 12:27 41.12527 36.76326 3403 ft 200 kts 299°
2026-04-26 12:27 41.13328 36.74835 3174 ft 195 kts 304°
2026-04-26 12:28 41.14125 36.73396 2942 ft 192 kts 304°
2026-04-26 12:28 41.14888 36.72017 2704 ft 184 kts 304°
2026-04-26 12:28 41.15635 36.70668 2469 ft 179 kts 304°
2026-04-26 12:28 41.16373 36.69360 2345 ft 177 kts 308°
2026-04-26 12:29 41.17215 36.68159 2106 ft 175 kts 313°
2026-04-26 12:29 41.18034 36.67037 1898 ft 164 kts 312°
2026-04-26 12:29 41.19555 36.64924 1477 ft 156 kts 313°
2026-04-26 12:30 41.20298 36.63892 1274 ft 153 kts 313°
2026-04-26 12:30 41.21025 36.62876 1070 ft 150 kts 313°
2026-04-26 12:30 41.21744 36.61905 884 ft 150 kts 313°
2026-04-26 12:31 41.23184 36.59857 455 ft 155 kts 313°
2026-04-26 12:31 41.23940 36.58815 216 ft 158 kts 310°
2026-04-26 12:31 41.24686 36.57769 37 ft 155 kts 312°
2026-04-26 12:31 41.25378 36.56804 7 ft 125 kts 314°
2026-04-26 12:32 41.25840 36.56154 7 ft 81 kts 313°
2026-04-26 12:32 41.26008 36.55870 6 ft 18 kts 268°
2026-04-26 12:32 41.25895 36.55690 9 ft 12 kts 221°
2026-04-26 12:33 41.25835 36.55622 8 ft 6 kts 223°
2026-04-26 12:33 41.25811 36.55591 8 ft 1 kts 224°
2026-04-26 12:33 41.25809 36.55588 8 ft 0 kts 224°